Weather in Cadaques

Spain     42°17′19″N   3°16′37″E
temp.,
°C
wind,
m/s
gust,
m/s
humid.,
%
clouds,
%
prec.,
mm/h
press.,
hPa
HPBL,
m
1 august, sun
sun123:00+19nnw121872100 5.2 1011792
02:00+18nnw10167299 15.4 1013820
05:00+18nw81471100 0.0 1012709
08:00+19nnw9126495 0.0 1013555
11:00+20nnw7105897 0.2 1014661
14:00+19w2367100 0.4 1015382
17:00+20ssw6668100 0.1 1014345
20:00+21sw4671100 0.1 1014318
2 august, mon
mon223:00+21nw366995 0.3 1016363
02:00+20nw4668100 0.3 1016453
05:00+20nw2364100 0.0 1016155
08:00+20nnw236436 0.0 1017232
11:00+21ne1260100 0.0 1017390
14:00+22ene2158100 0.0 1017367
17:00+22sse556647 0.0 1016381
20:00+23s56742 0.0 1016271
3 august, tue
tue323:00+22wsw457822 0.3 1016183
02:00+21w337943 0.3 101698
05:00+21wnw22754 0.0 101682
08:00+22n22690 0.0 1016121
11:00+23ne225819 0.0 1016277
14:00+23se446134 0.0 1016372
17:00+24sse78716 0.0 1014374
20:00+24sse67725 0.0 1012185
4 august, wed
wed423:00+23s5676100 0.0 1013143
02:00+23nne3375100 0.0 1013119
05:00+22nnw6773100 0.0 1013366
08:00+21nnw7976100 0.1 1014465
11:00+21n81075100 0.5 1015666
14:00+20nne5686100 4.8 1016343
17:00+21nnw61172100 1.2 1016644
20:00+21wnw487581 1.6 1016253
5 august, thu
thu523:00+21nnw69750 0.0 1017439
02:00+20nnw56710 0.0 1017363
05:00+20nnw33730 0.0 1016291
08:00+20nnw447115 0.0 1017348
11:00+21nnw22665 0.0 1017474
14:00+22ese32666 0.0 1017375
17:00+22sse547574 0.0 1015261
20:00+23se227124 0.0 1015195